Estación de Casa Rosada

Ultimos registro cada 15 minutos 57
Estación Fecha / Hora Temperatura Humedad Lluvia Velocidad Dirección Radiación Presion
57 Casa Rosada 02-09-2026 14:00 30,8 12 0 2,2 327 745 1010
56 Casa Rosada 02-09-2026 13:45 30,8 12 0 2,2 327 745 1010
55 Casa Rosada 02-09-2026 13:30 30,9 10 0 1,8 336 761 1010,1
54 Casa Rosada 02-09-2026 13:15 31 10 0 1,8 343 775 1010,4
53 Casa Rosada 02-09-2026 13:00 30,7 9 0 3,6 310 809 1010,7
52 Casa Rosada 02-09-2026 12:45 30,7 9 0 3,6 310 809 1010,7
51 Casa Rosada 02-09-2026 12:30 30,1 8 0 1,8 337 791 1010,9
50 Casa Rosada 02-09-2026 12:15 29,8 8 0 1,3 334 788 1011,1
49 Casa Rosada 02-09-2026 12:00 29,2 9 0 0,9 293 773 1011,8
48 Casa Rosada 02-09-2026 11:45 29,2 9 0 0,9 293 773 1011,8
47 Casa Rosada 02-09-2026 11:30 28,4 10 0 0,9 38 749 1012,2
46 Casa Rosada 02-09-2026 11:15 28,1 10 0 0,9 287 729 1012,5
45 Casa Rosada 02-09-2026 11:00 27,1 11 0 1,3 35 679 1013,4
44 Casa Rosada 02-09-2026 10:45 27,1 11 0 1,3 35 679 1013,4
43 Casa Rosada 02-09-2026 10:30 26,3 11 0 0,9 85 652 1013,7
42 Casa Rosada 02-09-2026 10:15 25,6 12 0 0,4 91 612 1014,2
41 Casa Rosada 02-09-2026 10:00 22,8 14 0 0,4 31 531 1015
40 Casa Rosada 02-09-2026 09:45 22,8 14 0 0,4 31 531 1015
39 Casa Rosada 02-09-2026 09:30 21,2 19 0 0,9 59 487 1015,4
38 Casa Rosada 02-09-2026 09:15 19,5 23 0 0,4 167 439 1015,8
37 Casa Rosada 02-09-2026 09:00 12,6 41 0 0 158 339 1015,8
36 Casa Rosada 02-09-2026 08:45 12,6 41 0 0 158 339 1015,8
35 Casa Rosada 02-09-2026 08:30 9,8 49 0 0,4 167 23 1015,6
34 Casa Rosada 02-09-2026 08:15 9,1 50 0 0,4 161 21 1015,5
33 Casa Rosada 02-09-2026 08:00 8,8 46 0 0,4 163 18 1015,2
32 Casa Rosada 02-09-2026 07:45 8,8 46 0 0,4 163 18 1015,2
31 Casa Rosada 02-09-2026 07:30 8,3 51 0 0,9 155 14 1015
30 Casa Rosada 02-09-2026 07:15 8,8 50 0 0,4 172 11 1014,7
29 Casa Rosada 02-09-2026 07:00 9 49 0 0,9 172 0 1014,2
28 Casa Rosada 02-09-2026 06:45 9 49 0 0,9 172 0 1014,2
27 Casa Rosada 02-09-2026 06:30 9,3 48 0 0,4 167 0 1014
26 Casa Rosada 02-09-2026 06:15 9,9 44 0 0,4 155 0 1013,9
25 Casa Rosada 02-09-2026 06:00 9,2 48 0 0,4 162 0 1013,5
24 Casa Rosada 02-09-2026 05:45 9,2 48 0 0,4 162 0 1013,5
23 Casa Rosada 02-09-2026 05:30 9,6 48 0 0 156 0 1013,5
22 Casa Rosada 02-09-2026 05:15 10,1 46 0 0 156 0 1013,5
21 Casa Rosada 02-09-2026 05:00 10,2 45 0 0 177 0 1013,4
20 Casa Rosada 02-09-2026 04:45 10,2 45 0 0 177 0 1013,4
19 Casa Rosada 02-09-2026 04:30 11,8 42 0 0 86 0 1013,3
18 Casa Rosada 02-09-2026 04:15 9,2 51 0 0 181 0 1013,3
17 Casa Rosada 02-09-2026 04:00 10,4 47 0 0 167 0 1013,2
16 Casa Rosada 02-09-2026 03:45 10,4 47 0 0 167 0 1013,2
15 Casa Rosada 02-09-2026 03:30 9,6 47 0 0,4 102 0 1013,4
14 Casa Rosada 02-09-2026 03:15 9,6 49 0 0,4 167 0 1013,5
13 Casa Rosada 02-09-2026 03:00 9,9 49 0 0,4 160 0 1013,7
12 Casa Rosada 02-09-2026 02:45 9,9 49 0 0,4 160 0 1013,7
11 Casa Rosada 02-09-2026 02:30 10,6 46 0 0,4 177 0 1013,9
10 Casa Rosada 02-09-2026 02:15 10,8 46 0 0 167 0 1014,1
9 Casa Rosada 02-09-2026 02:00 11,5 43 0 0,9 160 0 1014,4
8 Casa Rosada 02-09-2026 01:45 11,5 43 0 0,9 160 0 1014,4
7 Casa Rosada 02-09-2026 01:30 11,5 44 0 0,4 177 0 1014,4
6 Casa Rosada 02-09-2026 01:15 11,8 42 0 0 162 0 1014,5
5 Casa Rosada 02-09-2026 01:00 12,2 42 0 0,9 152 0 1014,5
4 Casa Rosada 02-09-2026 00:45 12,2 42 0 0,9 152 0 1014,5
3 Casa Rosada 02-09-2026 00:30 12,3 41 0 0 158 0 1014,5
2 Casa Rosada 02-09-2026 00:15 12,8 40 0 1,3 198 0 1014,5
1 Casa Rosada 02-09-2026 00:00 13,1 40 0 0,4 154 0 1014,2